Location: Benque
(43.2594°N, 0.9178°E)
Time: 03:28:31
(UTC+00:00)

CZ-4 R/B - Pass Details

Date: 24 January 2020
Orbit: 534 x 597 km, 97.7° (Epoch: 18 February)

Event Time Altitude Azimuth Distance (km) Brightness Sun altitude
Rises 17:25:11 0° 136° (SE) 2,756 4.7 -5.5°
Reaches altitude 10° 17:27:34 10° 123° (ESE) 1,875 3.7 -6.0°
Maximum altitude 17:30:54 25° 68° (ENE) 1,185 2.4 -6.5°
Drops below altitude 10° 17:34:19 10° 12° (NNE) 1,916 3.8 -7.1°
Sets 17:36:46 0° 360° (N) 2,831 4.8 -7.5°
